I4GOS-3 Weather Reports


time (UTC)temp
C
wind
direction
speed
KPH
gust
KPH
rain 1hr
cm
rain 24hr
cm
rain mn
cm
humidity
%
barometer
mb
20260507135537 19 40 3.2 0.0 0.00 0.00 0.00 61 1013.3
20260507135036 19 25 11.3 0.0 0.00 0.00 0.00 60 1013.4
20260507134536 20 43 12.9 0.0 0.00 0.00 0.00 58 1013.4
20260507134036 20 41 9.7 0.0 0.00 0.00 0.00 58 1013.4
20260507133536 20 354 12.9 0.0 0.00 0.00 0.00 57 1013.3
20260507133036 20 33 16.1 0.0 0.00 0.00 0.00 56 1013.3
20260507132535 19 359 14.5 0.0 0.00 0.00 0.00 57 1013.3
20260507132035 20 4 12.9 0.0 0.00 0.00 0.00 59 1013.4
20260507131535 20 37 16.1 0.0 0.00 0.00 0.00 57 1013.4
20260507131035 20 26 3.2 0.0 0.00 0.00 0.00 59 1013.3
20260507130534 20 35 8.0 0.0 0.00 0.00 0.00 59 1013.3
20260507130034 20 340 8.0 0.0 0.00 0.00 0.00 61 1013.3
20260507125533 19 18 14.5 0.0 0.00 0.00 0.00 60 1013.2
20260507125032 19 44 11.3 0.0 0.00 0.00 0.00 59 1013.3
20260507124532 19 39 14.5 0.0 0.00 0.00 0.00 60 1013.4
20260507124032 20 21 20.9 0.0 0.00 0.00 0.00 59 1013.3
20260507123823 20 39 17.7 0.0 0.00 0.00 0.00 59 1013.4
20260507123532 20 39 17.7 0.0 0.00 0.00 0.00 59 1013.4
20260507123032 19 354 16.1 0.0 0.00 0.00 0.00 59 1013.4
20260507122531 19 14 17.7 0.0 0.00 0.00 0.00 57 1013.4
20260507122031 19 27 14.5 0.0 0.00 0.00 0.00 53 1013.4
20260507121531 20 8 16.1 0.0 0.00 0.00 0.00 55 1013.4
20260507121031 20 4 11.3 0.0 0.00 0.00 0.00 52 1013.5
20260507120530 20 342 16.1 0.0 0.00 0.00 0.00 53 1013.5
20260507120030 20 11 14.5 0.0 0.00 0.00 0.00 54 1013.5
20260507115530 20 48 6.4 0.0 0.00 0.00 0.00 56 1013.5
20260507115030 19 8 8.0 0.0 0.00 0.00 0.00 58 1013.5
20260507114529 20 348 12.9 0.0 0.00 0.00 0.00 57 1013.5
20260507114029 20 35 12.9 0.0 0.00 0.00 0.00 53 1013.6
20260507113529 20 58 12.9 0.0 0.00 0.00 0.00 56 1013.6
20260507113029 20 43 11.3 0.0 0.00 0.00 0.00 57 1013.6
20260507112528 20 39 8.0 0.0 0.00 0.00 0.00 57 1013.5
20260507112028 19 25 9.7 0.0 0.00 0.00 0.00 60 1013.6
20260507111528 19 21 11.3 0.0 0.00 0.00 0.00 60 1013.7
20260507111107 19 347 6.4 0.0 0.00 0.00 0.00 58 1013.7
20260507111028 19 347 6.4 0.0 0.00 0.00 0.00 58 1013.7
20260507110528 20 25 17.7 0.0 0.00 0.00 0.00 56 1013.7
20260507110027 20 4 6.4 0.0 0.00 0.00 0.00 55 1013.7
20260507105527 20 348 6.4 0.0 0.00 0.00 0.00 57 1013.8
20260507105111 20 13 0.0 0.0 0.00 0.00 0.00 60 1013.7
20260507105027 20 13 0.0 0.0 0.00 0.00 0.00 60 1013.7
20260507104527 20 333 12.9 0.0 0.00 0.00 0.00 60 1013.7
20260507104026 20 316 17.7 0.0 0.00 0.00 0.00 56 1013.7
20260507103526 20 52 4.8 0.0 0.00 0.00 0.00 57 1013.7
20260507103026 20 341 8.0 0.0 0.00 0.00 0.00 57 1013.7
20260507102526 20 316 9.7 0.0 0.00 0.00 0.00 55 1013.7
20260507102025 21 349 12.9 0.0 0.00 0.00 0.00 54 1013.7
20260507101525 21 354 3.2 0.0 0.00 0.00 0.00 53 1013.7
20260507101025 21 338 6.4 0.0 0.00 0.00 0.00 53 1013.7
20260507100525 21 343 11.3 0.0 0.00 0.00 0.00 52 1013.8
20260507100025 20 27 8.0 0.0 0.00 0.00 0.00 52 1013.8
20260507095524 21 31 4.8 0.0 0.00 0.00 0.00 53 1013.8
20260507095024 20 324 14.5 0.0 0.00 0.00 0.00 55 1013.8
20260507094524 20 328 4.8 0.0 0.00 0.00 0.00 55 1013.8
20260507094024 20 342 9.7 0.0 0.00 0.00 0.00 54 1013.7
20260507093523 20 344 0.0 0.0 0.00 0.00 0.00 54 1013.9
20260507093055 20 332 8.0 0.0 0.00 0.00 0.00 54 1013.7
20260507093023 20 332 8.0 0.0 0.00 0.00 0.00 54 1013.7
20260507092523 20 308 8.0 0.0 0.00 0.00 0.00 55 1013.7
20260507092023 20 317 0.0 0.0 0.00 0.00 0.00 56 1013.7
20260507091522 20 321 8.0 0.0 0.00 0.00 0.00 58 1013.7
20260507091022 20 16 0.0 0.0 0.00 0.00 0.00 59 1013.7
20260507090522 20 354 3.2 0.0 0.00 0.00 0.00 59 1013.7
20260507090022 20 4 0.0 0.0 0.00 0.00 0.00 59 1013.7
20260507085522 19 354 4.8 0.0 0.00 0.00 0.00 60 1013.7
20260507085021 19 359 8.0 0.0 0.00 0.00 0.00 59 1013.7
20260507084521 19 359 16.1 0.0 0.00 0.00 0.00 61 1013.6
20260507084021 20 354 11.3 0.0 0.00 0.00 0.00 63 1013.6
20260507083521 20 354 3.2 0.0 0.00 0.00 0.00 63 1013.5
20260507083020 20 34 12.9 0.0 0.00 0.00 0.00 63 1013.5
20260507082520 20 317 6.4 0.0 0.00 0.00 0.00 64 1013.4
20260507082020 20 9 0.0 0.0 0.00 0.00 0.00 65 1013.3
20260507081519 20 331 0.0 0.0 0.00 0.00 0.00 64 1013.2
20260507081018 21 319 14.5 0.0 0.00 0.00 0.00 59 1013.2
20260507080518 21 266 0.0 0.0 0.00 0.00 0.00 55 1013.1
20260507080017 20 242 0.0 0.0 0.00 0.00 0.00 55 1013.1
20260507075517 20 230 0.0 0.0 0.00 0.00 0.00 56 1013.1
20260507075017 20 243 0.0 0.0 0.00 0.00 0.00 58 1013.1
20260507074517 20 235 0.0 0.0 0.00 0.00 0.00 59 1013.1
20260507074016 20 228 0.0 0.0 0.00 0.00 0.00 60 1013.1
20260507073516 20 229 0.0 0.0 0.00 0.00 0.00 61 1013.1
20260507073016 19 179 0.0 0.0 0.00 0.00 0.00 61 1013.2
20260507072516 19 182 0.0 0.0 0.00 0.00 0.00 62 1013.1
20260507072016 19 180 0.0 0.0 0.00 0.00 0.00 63 1013.1
20260507071515 19 75 0.0 0.0 0.00 0.00 0.00 64 1013.2
20260507071015 19 60 0.0 0.0 0.00 0.00 0.00 66 1013.2
20260507070515 19 60 0.0 0.0 0.00 0.00 0.00 66 1013.2
20260507070015 19 60 0.0 0.0 0.00 0.00 0.00 67 1013.2
20260507065514 18 54 0.0 0.0 0.00 0.00 0.00 69 1013.1
20260507065014 19 54 0.0 0.0 0.00 0.00 0.00 70 1013.1
20260507064514 18 54 0.0 0.0 0.00 0.00 0.00 71 1013.1
20260507064014 18 54 0.0 0.0 0.00 0.00 0.00 72 1013.1
20260507063513 18 54 0.0 0.0 0.00 0.00 0.00 73 1013.2
20260507063013 18 54 0.0 0.0 0.00 0.00 0.00 74 1013.2
20260507062513 18 45 0.0 0.0 0.00 0.00 0.00 75 1013.1
20260507062013 17 43 0.0 0.0 0.00 0.00 0.00 75 1013.1
20260507061513 17 42 0.0 0.0 0.00 0.00 0.00 75 1013.1
20260507061012 17 40 0.0 0.0 0.00 0.00 0.00 75 1013.1
20260507060512 17 40 0.0 0.0 0.00 0.00 0.00 75 1013.1
20260507060012 17 354 0.0 0.0 0.00 0.00 0.00 75 1013.1
20260507055512 16 354 0.0 0.0 0.00 0.00 0.00 74 1013.0
20260507055011 16 338 0.0 0.0 0.00 0.00 0.00 75 1013.0
20260507054511 16 156 0.0 0.0 0.00 0.00 0.00 75 1012.8
20260507054011 16 152 0.0 0.0 0.00 0.00 0.00 75 1012.8
20260507053511 16 131 0.0 0.0 0.00 0.00 0.00 75 1012.7
20260507053011 16 129 0.0 0.0 0.00 0.00 0.00 75 1012.7
20260507052510 16 129 0.0 0.0 0.00 0.00 0.00 75 1012.7
20260507052010 16 129 0.0 0.0 0.00 0.00 0.00 75 1012.6
20260507051510 16 129 0.0 0.0 0.00 0.00 0.00 75 1012.6
20260507051010 16 129 0.0 0.0 0.00 0.00 0.00 75 1012.7
20260507050509 16 129 0.0 0.0 0.00 0.00 0.00 75 1012.6
20260507050009 16 129 0.0 0.0 0.00 0.00 0.00 75 1012.6
20260507045509 16 129 0.0 0.0 0.00 0.00 0.00 75 1012.5
20260507045009 16 129 0.0 0.0 0.00 0.00 0.00 75 1012.4
20260507044508 16 129 0.0 0.0 0.00 0.00 0.00 75 1012.2
20260507044008 16 129 0.0 0.0 0.00 0.00 0.00 75 1012.2
20260507043508 16 129 0.0 0.0 0.00 0.00 0.00 75 1012.1
20260507043008 16 129 0.0 0.0 0.00 0.00 0.00 75 1012.1
20260507042507 16 129 0.0 0.0 0.00 0.00 0.00 75 1012.1
20260507042007 16 129 0.0 0.0 0.00 0.00 0.00 75 1012.2
20260507041507 16 129 0.0 0.0 0.00 0.00 0.00 75 1012.1
20260507041007 16 129 0.0 0.0 0.00 0.00 0.00 75 1012.1
20260507040507 16 124 0.0 0.0 0.00 0.00 0.00 75 1012.0
20260507040006 16 105 0.0 0.0 0.00 0.00 0.00 75 1011.9
20260507035506 16 102 0.0 0.0 0.00 0.00 0.00 75 1011.9
20260507035006 16 101 0.0 0.0 0.00 0.00 0.00 75 1011.8
20260507034506 16 116 0.0 0.0 0.00 0.00 0.00 75 1011.9
20260507034005 16 115 0.0 0.0 0.00 0.00 0.00 75 1011.9
20260507033505 16 115 0.0 0.0 0.00 0.00 0.00 76 1011.9
20260507033005 16 129 0.0 0.0 0.00 0.00 0.00 76 1011.8
20260507032505 16 129 0.0 0.0 0.00 0.00 0.00 76 1011.8
20260507032004 16 129 0.0 0.0 0.00 0.00 0.00 76 1011.8
20260507031736 16 129 0.0 0.0 0.00 0.00 0.00 76 1011.8
20260507031504 16 129 0.0 0.0 0.00 0.00 0.00 76 1011.8
20260507031004 16 130 0.0 0.0 0.00 0.00 0.00 76 1011.9
20260507030504 16 330 0.0 0.0 0.00 0.00 0.00 76 1011.8
20260507030004 16 330 0.0 0.0 0.00 0.00 0.00 75 1011.8
20260507025503 16 330 0.0 0.0 0.00 0.00 0.00 75 1011.8
20260507025003 16 330 0.0 0.0 0.00 0.00 0.00 75 1011.8
20260507024734 16 330 0.0 0.0 0.00 0.00 0.00 75 1011.8
20260507024503 16 330 0.0 0.0 0.00 0.00 0.00 75 1011.8
20260507024003 16 330 0.0 0.0 0.00 0.00 0.00 75 1011.8
20260507023502 16 330 0.0 0.0 0.00 0.00 0.00 75 1011.6
20260507023002 16 330 0.0 0.0 0.00 0.00 0.00 75 1011.6
20260507022502 16 330 0.0 0.0 0.00 0.00 0.00 75 1011.7
20260507022002 16 330 0.0 0.0 0.00 0.00 0.00 75 1011.8
20260507021501 16 330 0.0 0.0 0.00 0.00 0.00 75 1011.7
20260507021218 16 330 0.0 0.0 0.00 0.00 0.00 75 1011.8
20260507021001 16 330 0.0 0.0 0.00 0.00 0.00 75 1011.8
20260507020501 16 330 0.0 0.0 0.00 0.00 0.00 75 1011.8
20260507020001 16 330 0.0 0.0 0.00 0.00 0.00 75 1011.8
20260507015501 16 330 0.0 0.0 0.00 0.00 0.00 75 1011.7
20260507015000 16 330 0.0 0.0 0.00 0.00 0.00 75 1011.7
20260507014501 16 330 0.0 0.0 0.00 0.00 0.00 75 1011.7
20260507014000 17 330 0.0 0.0 0.00 0.00 0.00 75 1011.7
20260507013500 17 330 0.0 0.0 0.00 0.00 0.00 75 1011.7
20260507012959 17 330 0.0 0.0 0.00 0.00 0.00 75 1011.7
20260507012459 17 329 0.0 0.0 0.00 0.00 0.00 75 1011.7
20260507011959 17 329 0.0 0.0 0.00 0.00 0.00 75 1011.7
20260507011459 17 329 0.0 0.0 0.00 0.00 0.00 75 1011.7
20260507010959 17 329 0.0 0.0 0.00 0.00 0.00 74 1011.7
20260507010458 17 329 0.0 0.0 0.00 0.00 0.00 74 1011.7
20260507005958 17 328 0.0 0.0 0.00 0.00 0.00 74 1011.8
20260507005458 17 325 0.0 0.0 0.00 0.00 0.00 74 1011.7
20260507004958 17 33 0.0 0.0 0.00 0.00 0.00 74 1011.8
20260507004457 17 33 0.0 0.0 0.00 0.00 0.00 73 1011.8
20260507003957 17 33 0.0 0.0 0.00 0.00 0.00 73 1011.8
20260507003457 17 33 0.0 0.0 0.00 0.00 0.00 73 1011.7
20260507002957 17 280 0.0 0.0 0.00 0.00 0.00 72 1011.8
20260507002456 17 281 0.0 0.0 0.00 0.00 0.00 71 1011.8
20260507001956 17 280 0.0 0.0 0.00 0.00 0.00 71 1011.8
20260507001456 18 280 0.0 0.0 0.00 0.00 0.00 71 1011.8
20260507000956 18 280 0.0 0.0 0.00 0.00 0.00 70 1011.9
20260507000455 18 281 0.0 0.0 0.00 0.00 0.00 70 1011.9
20260506235955 18 281 0.0 0.0 0.00 0.00 0.00 69 1011.9
20260506235455 18 280 0.0 0.0 0.00 0.00 0.00 68 1011.9
20260506234955 18 237 0.0 0.0 0.00 0.00 0.00 68 1011.8
20260506234455 18 237 0.0 0.0 0.00 0.00 0.00 67 1011.7
20260506233954 18 144 0.0 0.0 0.00 0.00 0.00 67 1011.7
20260506233454 18 143 0.0 0.0 0.00 0.00 0.00 67 1011.7
20260506232954 18 187 0.0 0.0 0.00 0.00 0.00 67 1011.7
20260506232454 18 223 4.8 0.0 0.00 0.00 0.00 66 1011.7
20260506231953 19 245 0.0 0.0 0.00 0.00 0.00 65 1011.7
20260506230953 19 166 0.0 0.0 0.00 0.00 0.00 64 1011.5
20260506230453 19 184 3.2 0.0 0.00 0.00 0.00 64 1011.5
20260506225952 19 139 9.7 0.0 0.00 0.00 0.00 64 1011.6
20260506225452 19 187 11.3 0.0 0.00 0.00 0.00 65 1011.5
20260506224952 19 133 3.2 0.0 0.00 0.00 0.00 65 1011.5
20260506224452 19 157 3.2 0.0 0.00 0.00 0.00 66 1011.5
20260506223952 18 150 4.8 0.0 0.00 0.00 0.00 66 1011.5
20260506223451 18 155 3.2 0.0 0.00 0.00 0.00 67 1011.4
20260506222951 18 140 8.0 0.0 0.00 0.00 0.00 68 1011.5
20260506222451 18 152 8.0 0.0 0.00 0.00 0.00 69 1011.6
20260506221951 18 141 3.2 0.0 0.00 0.00 0.00 70 1011.6
20260506221451 18 145 4.8 0.0 0.00 0.00 0.00 70 1011.7
20260506220950 18 150 0.0 0.0 0.00 0.00 0.00 71 1011.7
20260506220450 18 139 0.0 0.0 0.00 0.00 0.00 71 1011.7
20260506215950 18 139 0.0 0.0 0.00 0.00 0.00 71 1011.7
20260506215450 18 139 0.0 0.0 0.00 0.00 0.00 71 1011.8
20260506214949 18 139 0.0 0.0 0.00 0.00 0.00 71 1011.7
20260506214449 18 143 0.0 0.0 0.00 0.00 0.00 71 1011.8
20260506213949 18 143 0.0 0.0 0.00 0.00 0.00 71 1011.9
20260506213449 18 129 0.0 0.0 0.00 0.00 0.00 72 1011.8
20260506212948 18 109 0.0 0.0 0.00 0.00 0.00 72 1011.8
20260506212448 18 104 0.0 0.0 0.00 0.00 0.00 73 1011.7
20260506211948 18 92 0.0 0.0 0.00 0.00 0.00 73 1011.7
20260506211448 18 46 0.0 0.0 0.00 0.00 0.00 73 1011.8
20260506210948 18 46 0.0 0.0 0.00 0.00 0.00 73 1011.8
20260506210447 18 45 0.0 0.0 0.00 0.00 0.00 73 1011.8
20260506205947 18 46 0.0 0.0 0.00 0.00 0.00 73 1011.8
20260506205447 18 46 0.0 0.0 0.00 0.00 0.00 73 1011.8
20260506204947 18 45 0.0 0.0 0.00 0.00 0.00 73 1011.8
20260506204446 18 45 0.0 0.0 0.00 0.00 0.00 73 1011.8
20260506203946 18 45 0.0 0.0 0.00 0.00 0.00 73 1011.7
20260506202946 18 45 0.0 0.0 0.00 0.00 0.00 73 1011.7
20260506202445 18 33 0.0 0.0 0.00 0.00 0.00 73 1011.5
20260506201945 18 354 0.0 0.0 0.00 0.00 0.00 73 1011.5
20260506201445 18 346 0.0 0.0 0.00 0.00 0.00 73 1011.5
20260506200945 18 346 0.0 0.0 0.00 0.00 0.00 73 1011.5
20260506200445 18 346 0.0 0.0 0.00 0.00 0.00 73 1011.6
20260506195944 18 346 0.0 0.0 0.00 0.00 0.00 73 1011.6
20260506195444 18 346 0.0 0.0 0.00 0.00 0.00 73 1011.5
20260506194944 18 343 0.0 0.0 0.00 0.00 0.00 72 1011.5
20260506194444 18 341 0.0 0.0 0.00 0.00 0.00 72 1011.4
20260506193943 18 343 0.0 0.0 0.00 0.00 0.00 72 1011.4
20260506193443 18 343 0.0 0.0 0.00 0.00 0.00 72 1011.3
20260506192943 18 343 0.0 0.0 0.00 0.00 0.00 72 1011.3
20260506192443 18 343 0.0 0.0 0.00 0.00 0.00 72 1011.3
20260506191942 18 343 0.0 0.0 0.00 0.00 0.00 72 1011.1
20260506191442 18 339 0.0 0.0 0.00 0.00 0.00 71 1011.1
20260506190942 18 337 0.0 0.0 0.00 0.00 0.00 71 1011.0
20260506190442 18 339 0.0 0.0 0.00 0.00 0.00 71 1010.9
20260506185941 18 308 0.0 0.0 0.00 0.00 0.00 70 1010.8
20260506185441 18 291 0.0 0.0 0.00 0.00 0.00 70 1010.8
20260506184941 18 303 0.0 0.0 0.00 0.00 0.00 70 1010.7
20260506184441 18 282 0.0 0.0 0.00 0.00 0.00 70 1010.7
20260506183941 18 285 0.0 0.0 0.00 0.00 0.00 69 1010.6
20260506183440 18 284 8.0 0.0 0.00 0.00 0.00 69 1010.5
20260506182940 19 266 4.8 0.0 0.00 0.00 0.00 69 1010.4
20260506182440 20 252 0.0 0.0 0.00 0.00 0.00 67 1010.3
20260506181940 20 251 0.0 0.0 0.00 0.00 0.00 66 1010.2
20260506181439 20 254 0.0 0.0 0.00 0.00 0.00 65 1010.1
20260506180939 21 237 0.0 0.0 0.00 0.00 0.00 63 1010.1
20260506180439 21 148 0.0 0.0 0.00 0.00 0.00 62 1010.0
20260506175939 21 158 4.8 0.0 0.00 0.00 0.00 62 1009.8
20260506174938 21 135 4.8 0.0 0.00 0.00 0.00 61 1009.8
20260506174438 21 144 1.6 0.0 0.00 0.00 0.00 61 1009.8
20260506173938 21 148 6.4 0.0 0.00 0.00 0.00 61 1009.7
20260506173437 21 136 12.9 0.0 0.00 0.00 0.00 60 1009.7
20260506172937 21 144 3.2 0.0 0.00 0.00 0.00 60 1009.6
20260506172437 21 131 3.2 0.0 0.00 0.00 0.00 60 1009.6
20260506171937 21 149 6.4 0.0 0.00 0.00 0.00 59 1009.6
20260506171436 21 138 14.5 0.0 0.00 0.00 0.00 59 1009.5
20260506170936 21 135 16.1 0.0 0.00 0.00 0.00 59 1009.4
20260506170436 21 157 4.8 0.0 0.00 0.00 0.00 59 1009.4
20260506165936 21 148 4.8 0.0 0.00 0.00 0.00 58 1009.4
20260506165436 21 144 14.5 0.0 0.00 0.00 0.00 58 1009.4
20260506164935 22 129 12.9 0.0 0.00 0.00 0.00 57 1009.3
20260506164506 22 160 11.3 0.0 0.00 0.00 0.00 57 1009.4
20260506164435 22 160 11.3 0.0 0.00 0.00 0.00 57 1009.4
20260506163935 22 151 9.7 0.0 0.00 0.00 0.00 57 1009.5
20260506163435 22 145 12.9 0.0 0.00 0.00 0.00 56 1009.4
20260506162934 22 150 14.5 0.0 0.00 0.00 0.00 56 1009.5
20260506162434 22 136 14.5 0.0 0.00 0.00 0.00 56 1009.5
20260506161934 22 130 11.3 0.0 0.00 0.00 0.00 56 1009.5
20260506161434 22 138 16.1 0.0 0.00 0.00 0.00 56 1009.5
20260506160933 22 143 12.9 0.0 0.00 0.00 0.00 56 1009.6
20260506160433 22 147 8.0 0.0 0.00 0.00 0.00 56 1009.6
20260506155933 22 131 14.5 0.0 0.00 0.00 0.00 55 1009.5
20260506155433 22 133 12.9 0.0 0.00 0.00 0.00 56 1009.6
20260506154932 22 146 19.3 0.0 0.00 0.00 0.00 55 1009.6
20260506154432 22 116 12.9 0.0 0.00 0.00 0.00 55 1009.5
20260506153932 22 135 16.1 0.0 0.00 0.00 0.00 54 1009.5
20260506153432 23 139 19.3 0.0 0.00 0.00 0.00 53 1009.4
20260506152932 23 152 11.3 0.0 0.00 0.00 0.00 54 1009.4
20260506152431 23 162 11.3 0.0 0.00 0.00 0.00 56 1009.4
20260506151931 23 147 3.2 0.0 0.00 0.00 0.00 56 1009.3
20260506150931 22 148 8.0 0.0 0.00 0.00 0.00 57 1009.4
20260506150430 22 166 8.0 0.0 0.00 0.00 0.00 56 1009.4
20260506145930 22 145 4.8 0.0 0.00 0.00 0.00 56 1009.4
20260506145430 22 166 11.3 0.0 0.00 0.00 0.00 56 1009.3
20260506144930 22 142 9.7 0.0 0.00 0.00 0.00 57 1009.3
20260506144430 22 131 12.9 0.0 0.00 0.00 0.00 56 1009.3
20260506143929 22 142 14.5 0.0 0.00 0.00 0.00 56 1009.3
20260506143429 22 145 16.1 0.0 0.00 0.00 0.00 55 1009.2
20260506142929 22 150 19.3 0.0 0.00 0.91 0.00 54 1009.3
20260506142429 23 153 16.1 0.0 0.00 0.91 0.00 54 1009.3
20260506141928 23 153 6.4 0.0 0.00 0.91 0.00 55 1009.2
20260506141428 22 149 12.9 0.0 0.00 0.91 0.00 54 1009.2
20260506140928 22 151 12.9 0.0 0.00 0.91 0.00 55 1009.4
20260506140428 22 176 14.5 0.0 0.00 0.91 0.00 54 1009.6
20260506135928 22 165 19.3 0.0 0.00 0.91 0.00 53 1009.6